This demonstration page uses our WeatherBlox Daily Observations layout. Learn more.

Left ArrowRight Arrow

Hourly Observations for August 25, 2021

Temp ( °F °C ) Dew Point ( °F °C ) Humidity (%) Winds ( mph kmh ) Pressure ( in mb ) Visibility ( mi km ) Precip ( " mm )
12:32 am 00:32 Cloudy 81 27.2 68 20 65 65 N 28 44 29.90 1012 10 16 0.00 0.00
12:41 am 00:41 Cloudy with Nearby Thunderstorms 80 26.7 67 19.4 64 64 N 25 41 29.91 1013 10 16 0.00 0.00
12:54 am 00:54 Windy with Storms Likely 77 25 66 18.9 69 69 N 23 37 29.92 1013 10 16 0.00 0.00
1:13 am 01:13 Mostly Cloudy with Nearby Thunderstorms 73 22.8 66 18.9 79 79 NNE 18 30 29.92 1013 10 16 0.00 0.00
1:36 am 01:36 Partly Cloudy 74 23.3 66 18.9 76 76 ENE 18 30 29.90 1013 10 16 0.01 0.25
1:54 am 01:54 Mostly Cloudy 75 23.9 66 18.9 74 74 ENE 18 30 29.90 1013 10 16 0.01 0.25
2:36 am 02:36 Mostly Cloudy with Nearby Thunderstorms 76 24.4 65 18.3 69 69 E 13 20 29.91 1013 10 16 0.00 0.00
2:54 am 02:54 Cloudy with Nearby Thunderstorms 75 23.9 66 18.9 74 74 E 10 17 29.91 1013 10 16 0.00 0.00
3:09 am 03:09 Cloudy with Thunderstorms 75 23.9 66 18.9 74 74 VRB 3 6 29.94 1014 8 13 0.00 0.00
3:24 am 03:24 Cloudy with Nearby Thunderstorms 73 22.8 66 18.9 79 79 E 10 17 29.92 1013 8 13 0.06 1.52
3:45 am 03:45 Cloudy with Thunderstorms 73 22.8 67 19.4 81 81 SE 5 7 29.92 1013 10 16 0.08 2.03
3:54 am 03:54 Cloudy with Thunderstorms 73 22.8 67 19.4 81 81 ESE 5 7 29.94 1014 10 16 0.08 2.03
4:18 am 04:18 Mostly Cloudy with Nearby Thunderstorms 73 22.8 67 19.4 81 81 ESE 15 24 29.89 1012 10 16 0.10 2.54
4:30 am 04:30 Partly Cloudy 73 22.8 67 19.4 81 81 SE 12 19 29.88 1012 10 16 0.10 2.54
4:54 am 04:54 Mostly Clear 72 22.2 67 19.4 84 84 S 13 20 29.87 1012 10 16 0.10 2.54
5:54 am 05:54 Mostly Clear with Light Rain 73 22.8 67 19.4 81 81 NNE 10 17 29.91 1013 10 16 0.00 0.00
6:49 am 06:49 Sunny with Nearby Thunderstorms 70 21 66 19 88 88 N 8 13 29.95 1014 10 16 0.01 0.25
6:54 am 06:54 Sunny with Nearby Thunderstorms 70 21.1 66 18.9 87 87 N 8 13 29.95 1014 10 16 0.01 0.25
7:04 am 07:04 Sunny 69 20.6 66 18.9 90 90 N 12 19 29.95 1014 10 16 0.00 0.00
7:54 am 07:54 Sunny 70 21.1 67 19.4 90 90 Calm 30.00 1016 10 16 0.00 0.00
8:54 am 08:54 Sunny 74 23.3 68 20 82 82 NNE 3 6 30.01 1016 10 16 0.00 0.00
9:54 am 09:54 Sunny 79 26.1 69 20.6 72 72 ENE 5 7 30.02 1017 10 16 0.00 0.00
10:54 am 10:54 Sunny 81 27.2 69 20.6 67 67 ESE 5 7 30.05 1018 10 16 0.00 0.00
11:54 am 11:54 Sunny 84 28.9 70 21.1 63 63 VRB 5 7 30.05 1018 10 16 0.00 0.00
12:54 pm 12:54 Partly Cloudy 86 30 70 21.1 59 59 VRB 5 7 30.05 1018 10 16 0.00 0.00
1:54 pm 13:54 Partly Cloudy 88 31.1 70 21.1 55 55 E 7 11 30.04 1017 10 16 0.00 0.00
2:54 pm 14:54 Partly Cloudy 88 31.1 70 21.1 55 55 E 9 15 30.03 1017 10 16 0.00 0.00
3:54 pm 15:54 Partly Cloudy 90 32.2 71 21.7 54 54 ESE 12 19 30.03 1017 10 16 0.00 0.00
4:54 pm 16:54 Mostly Sunny 90 32.2 71 21.7 54 54 ENE 13 20 30.02 1017 10 16 0.00 0.00
5:54 pm 17:54 Mostly Sunny 89 31.7 71 21.7 55 55 ENE 15 24 30.02 1017 10 16 0.00 0.00
6:54 pm 18:54 Partly Cloudy 87 30.6 72 22.2 61 61 NE 12 19 30.04 1017 10 16 0.00 0.00
7:54 pm 19:54 Sunny 84 28.9 72 22.2 67 67 ENE 6 9 30.04 1017 10 16 0.00 0.00
8:54 pm 20:54 Clear 82 27.8 72 22.2 72 72 SE 7 11 30.04 1017 10 16 0.00 0.00
9:54 pm 21:54 Clear 77 25 71 21.7 82 82 N 6 9 30.06 1018 10 16 0.00 0.00
10:54 pm 22:54 Clear 81 27.2 72 22.2 74 74 E 7 11 30.04 1017 10 16 0.00 0.00
11:54 pm 23:54 Clear 80 26.7 72 22.2 76 76 E 9 15 30.04 1017 10 16 0.00 0.00

Powered by AerisWeather